Location: College Rock
(37.2713°N, 119.1740°W)
Time: 04:34:48
(UTC+00:00)

Uosat 12 SS-18 rocket - Pass Details

Date: 29 October 2020
Orbit: 601 x 1384 km, 64.6° (Epoch: 23 November)

Event Time Altitude Azimuth Distance (km) Brightness Sun altitude
Rises 13:24:23 0° 213° (SSW) 3,237 7.5 -11.4°
Reaches altitude 10° 13:26:56 10° 214° (SW) 2,212 6.6 -10.9°
Maximum altitude 13:31:50 77° 300° (WNW) 673 4.1 -9.9°
Drops below altitude 10° 13:36:13 10° 28° (NNE) 1,973 6.9 -9.1°
Sets 13:38:23 0° 30° (NNE) 2,858 7.7 -8.7°
